• In Hungary
  • List of Countries
  • For 7 days
  • Water Temperature
  • Satellite Maps
  • Weather Map
  • News
  • Weather Widgets
  • user-avatar
    Login

    Hourly Weather Konispol

    Today, 20 November, Monday

    Time Temperature Precipitation Wind Pressure Humidity
    00:00 +10°C° 0.1 mm 4 mps 730 mmHg 89%
    01:00 +8°C° 0 mm 4 mps 730 mmHg 88%
    02:00 +8°C° 0.2 mm 5 mps 730 mmHg 88%
    03:00 +8°C° 0.2 mm 5 mps 730 mmHg 89%
    04:00 +8°C° 0.2 mm 5 mps 730 mmHg 89%
    05:00 +8°C° 0.5 mm 6 mps 730 mmHg 89%
    06:00 +7°C° 0.5 mm 6 mps 730 mmHg 89%
    07:00 +7°C° 0 mm 6 mps 730 mmHg 89%
    08:00 +8°C° 0.3 mm 7 mps 731 mmHg 81%
    09:00 +9°C° 0.3 mm 7 mps 731 mmHg 74%
    10:00 +10°C° 0.3 mm 7 mps 732 mmHg 67%
    11:00 +10°C° 0 mm 7 mps 732 mmHg 62%
    12:00 +11°C° 0 mm 8 mps 732 mmHg 57%
    13:00 +11°C° 0 mm 8 mps 733 mmHg 53%
    14:00 +10°C° 0 mm 7 mps 733 mmHg 55%
    15:00 +9°C° 0 mm 7 mps 733 mmHg 58%
    16:00 +8°C° 0 mm 6 mps 733 mmHg 61%
    17:00 +7°C° 0 mm 6 mps 734 mmHg 63%
    18:00 +6°C° 0 mm 5 mps 734 mmHg 65%
    19:00 +6°C° 0 mm 5 mps 735 mmHg 67%
    20:00 +5°C° 0 mm 4 mps 735 mmHg 69%
    21:00 +5°C° 0 mm 4 mps 736 mmHg 70%
    22:00 +5°C° 0 mm 3 mps 736 mmHg 71%
    23:00 +4°C° 0 mm 3 mps 736 mmHg 71%

    Tomorrow, 21 November, Tuesday

    Time Temperature Precipitation Wind Pressure Humidity
    00:00 +4°C° 0 mm 3 mps 736 mmHg 71%
    01:00 +4°C° 0 mm 3 mps 737 mmHg 71%
    02:00 +4°C° 0 mm 3 mps 737 mmHg 70%
    03:00 +4°C° 0 mm 3 mps 737 mmHg 68%
    04:00 +3°C° 0 mm 3 mps 737 mmHg 67%
    05:00 +5°C° 0 mm 2 mps 737 mmHg 65%
    06:00 +5°C° 0 mm 2 mps 737 mmHg 62%
    07:00 +5°C° 0 mm 2 mps 737 mmHg 59%
    08:00 +7°C° 0 mm 2 mps 737 mmHg 51%
    09:00 +10°C° 0 mm 1 mps 738 mmHg 44%
    10:00 +12°C° 0 mm 1 mps 738 mmHg 36%
    11:00 +12°C° 0 mm 2 mps 738 mmHg 36%
    12:00 +13°C° 0 mm 2 mps 737 mmHg 35%
    13:00 +13°C° 0 mm 2 mps 737 mmHg 35%
    14:00 +12°C° 0 mm 2 mps 737 mmHg 41%
    15:00 +10°C° 0 mm 2 mps 737 mmHg 46%
    16:00 +9°C° 0 mm 2 mps 737 mmHg 52%
    17:00 +8°C° 0 mm 2 mps 737 mmHg 53%
    18:00 +9°C° 0 mm 1 mps 737 mmHg 54%
    19:00 +8°C° 0 mm 1 mps 737 mmHg 55%
    20:00 +8°C° 0 mm 1 mps 738 mmHg 54%
    21:00 +7°C° 0 mm 1 mps 738 mmHg 54%
    22:00 +7°C° 0 mm 1 mps 738 mmHg 54%
    23:00 +7°C° 0 mm 1 mps 738 mmHg 53%

    Day after tomorrow, 22 November, Wednesday

    Time Temperature Precipitation Wind Pressure Humidity
    00:00 +7°C° 0 mm 1 mps 738 mmHg 52%
    01:00 +6°C° 0 mm 2 mps 738 mmHg 51%
    02:00 +6°C° 0 mm 2 mps 737 mmHg 50%
    03:00 +6°C° 0 mm 2 mps 737 mmHg 49%
    04:00 +6°C° 0 mm 2 mps 737 mmHg 48%
    05:00 +6°C° 0 mm 2 mps 737 mmHg 47%
    06:00 +6°C° 0 mm 2 mps 737 mmHg 47%
    07:00 +6°C° 0 mm 2 mps 737 mmHg 47%
    08:00 +9°C° 0 mm 1 mps 738 mmHg 45%
    09:00 +11°C° 0 mm 1 mps 738 mmHg 42%
    10:00 +13°C° 0 mm 1 mps 738 mmHg 40%
    11:00 +14°C° 0 mm 1 mps 738 mmHg 41%
    12:00 +15°C° 0 mm 1 mps 738 mmHg 42%
    13:00 +15°C° 0 mm 1 mps 737 mmHg 44%
    14:00 +14°C° 0 mm 1 mps 737 mmHg 50%
    15:00 +13°C° 0 mm 1 mps 737 mmHg 57%
    16:00 +12°C° 0 mm 1 mps 737 mmHg 63%
    17:00 +11°C° 0 mm 1 mps 737 mmHg 65%
    18:00 +10°C° 0 mm 1 mps 738 mmHg 68%
    19:00 +10°C° 0 mm 1 mps 738 mmHg 70%
    20:00 +10°C° 0 mm 1 mps 738 mmHg 70%
    21:00 +9°C° 0 mm 1 mps 738 mmHg 70%
    22:00 +9°C° 0 mm 1 mps 738 mmHg 70%
    23:00 +9°C° 0 mm 1 mps 738 mmHg 70%

    23 November, Thursday

    Time Temperature Precipitation Wind Pressure Humidity
    00:00 +9°C° 0 mm 1 mps 738 mmHg 70%
    01:00 +9°C° 0 mm 1 mps 738 mmHg 69%
    02:00 +9°C° 0 mm 1 mps 738 mmHg 69%
    03:00 +9°C° 0 mm 1 mps 738 mmHg 68%
    04:00 +9°C° 0 mm 1 mps 738 mmHg 68%
    05:00 +9°C° 0 mm 1 mps 738 mmHg 67%
    06:00 +9°C° 0 mm 1 mps 738 mmHg 67%
    07:00 +9°C° 0 mm 1 mps 738 mmHg 66%
    08:00 +11°C° 0 mm 1 mps 738 mmHg 61%
    09:00 +13°C° 0 mm 1 mps 738 mmHg 55%
    10:00 +15°C° 0 mm 1 mps 738 mmHg 50%
    11:00 +16°C° 0 mm 1 mps 738 mmHg 50%
    12:00 +16°C° 0 mm 2 mps 738 mmHg 49%
    13:00 +17°C° 0 mm 2 mps 738 mmHg 49%
    14:00 +16°C° 0 mm 2 mps 738 mmHg 55%
    15:00 +15°C° 0 mm 2 mps 738 mmHg 61%
    16:00 +13°C° 0 mm 2 mps 738 mmHg 67%
    17:00 +12°C° 0 mm 2 mps 738 mmHg 69%
    18:00 +12°C° 0 mm 2 mps 738 mmHg 70%
    19:00 +10°C° 0 mm 2 mps 738 mmHg 71%
    20:00 +10°C° 0 mm 2 mps 739 mmHg 70%
    21:00 +10°C° 0 mm 2 mps 739 mmHg 69%
    22:00 +9°C° 0 mm 2 mps 739 mmHg 68%
    23:00 +9°C° 0 mm 2 mps 739 mmHg 67%

    24 November, Friday

    Time Temperature Precipitation Wind Pressure Humidity
    00:00 +9°C° 0 mm 2 mps 739 mmHg 66%
    01:00 +9°C° 0 mm 2 mps 738 mmHg 65%
    02:00 +9°C° 0 mm 2 mps 738 mmHg 64%
    03:00 +9°C° 0 mm 2 mps 738 mmHg 64%
    04:00 +8°C° 0 mm 2 mps 738 mmHg 63%
    05:00 +8°C° 0 mm 2 mps 738 mmHg 63%
    06:00 +8°C° 0 mm 2 mps 739 mmHg 63%
    07:00 +8°C° 0 mm 2 mps 739 mmHg 63%
    08:00 +12°C° 0 mm 2 mps 739 mmHg 57%
    09:00 +14°C° 0 mm 1 mps 739 mmHg 52%
    10:00 +16°C° 0 mm 1 mps 739 mmHg 46%
    11:00 +18°C° 0 mm 1 mps 739 mmHg 45%
    12:00 +18°C° 0 mm 1 mps 739 mmHg 44%
    13:00 +18°C° 0 mm 2 mps 738 mmHg 43%
    14:00 +16°C° 0 mm 2 mps 738 mmHg 50%
    15:00 +15°C° 0 mm 2 mps 738 mmHg 56%
    16:00 +14°C° 0 mm 2 mps 738 mmHg 62%
    17:00 +13°C° 0 mm 2 mps 738 mmHg 64%
    18:00 +12°C° 0 mm 2 mps 739 mmHg 66%
    19:00 +10°C° 0 mm 2 mps 739 mmHg 68%
    20:00 +10°C° 0 mm 2 mps 739 mmHg 69%
    21:00 +10°C° 0 mm 2 mps 739 mmHg 70%
    22:00 +10°C° 0 mm 2 mps 739 mmHg 70%
    23:00 +9°C° 0 mm 2 mps 739 mmHg 71%

    25 November, Saturday

    Time Temperature Precipitation Wind Pressure Humidity
    00:00 +9°C° 0 mm 2 mps 740 mmHg 72%
    01:00 +9°C° 0 mm 2 mps 740 mmHg 73%
    02:00 +9°C° 0 mm 2 mps 740 mmHg 74%
    03:00 +9°C° 0 mm 2 mps 739 mmHg 74%
    04:00 +8°C° 0 mm 2 mps 739 mmHg 75%
    05:00 +8°C° 0 mm 2 mps 740 mmHg 76%
    06:00 +8°C° 0 mm 2 mps 740 mmHg 76%
    07:00 +8°C° 0 mm 2 mps 740 mmHg 76%
    08:00 +10°C° 0 mm 2 mps 740 mmHg 70%
    09:00 +13°C° 0 mm 1 mps 741 mmHg 63%
    10:00 +16°C° 0 mm 1 mps 741 mmHg 56%
    11:00 +16°C° 0 mm 1 mps 740 mmHg 54%
    12:00 +18°C° 0 mm 1 mps 740 mmHg 52%
    13:00 +18°C° 0 mm 1 mps 740 mmHg 49%
    14:00 +16°C° 0 mm 1 mps 740 mmHg 55%
    15:00 +15°C° 0 mm 1 mps 740 mmHg 61%
    16:00 +14°C° 0 mm 1 mps 740 mmHg 67%
    17:00 +13°C° 0 mm 1 mps 740 mmHg 70%
    18:00 +12°C° 0 mm 1 mps 740 mmHg 72%
    19:00 +11°C° 0 mm 1 mps 741 mmHg 74%
    20:00 +11°C° 0 mm 1 mps 741 mmHg 74%
    21:00 +11°C° 0 mm 1 mps 741 mmHg 75%
    22:00 +11°C° 0 mm 1 mps 741 mmHg 75%
    23:00 +10°C° 0 mm 1 mps 741 mmHg 76%
    Show more